User: anonymous   Login
Location: Unspecified
(0.0000°N, 0.0000°E)
Time: 12:25:04
(UTC+01:00)
Language:

Orbus 21S - Orbit

View from above orbital plane
View from above orbital plane
View from above satellite
View from above satellite

Ground track
Ground track

The orbit data is extracted from the following two-line orbital elements,

1 20669U 90056C   17328.22263854 -.00000270  00000-0  17620-3 0  9995
2 20669  24.4961  20.2342 7096301 138.7634 305.1695  2.48539884231390
Epoch (UTC): 24 November 2017 05:20:35
Eccentricity: 0.7096301
inclination: 24.4961°
perigee height: 306 km
apogee height: 32980 km
right ascension of ascending node: 20.2342°
argument of perigee: 138.7634°
revolutions per day: 2.48539884
mean anomaly at epoch: 305.1695°
orbit number at epoch: 23139

The dashed part of the orbit path shows where the satellite is in the earth's shadow,  

DLR